Montrose, CO

3:07 PM MDT on May 28, 2017 (GMT -0600)
Montrose Regional

Weather History for KMTJ - December, 2012

Change the Weather History Date:

Wednesday, December 5, 2012

  Actual Average Record
Temperature  
Mean Temperature 40 °F 29 °F  
Max Temperature 53 °F 40 °F 53 °F (2012)
Min Temperature 26 °F 18 °F -9 °F (2013)
Degree Days  
Heating Degree Days 25 36  
Month to date heating degree days 113 176  
Since 1 July heating degree days 1255 1597  
Cooling Degree Days 0 0  
Month to date cooling degree days 0 0  
Year to date cooling degree days 906 643  
Moisture  
Dew Point 19 °F    
Average Humidity 46    
Maximum Humidity 63    
Minimum Humidity 28    
Precipitation  
Precipitation 0.00 in 0.03 in 0.13 in (2004)
Month to date precipitation T 0.12  
Year to date precipitation 5.48 10.77  
Sea Level Pressure  
Sea Level Pressure 30.17 in    
Wind  
Wind Speed 4 mph (SSE)    
Max Wind Speed 10 mph    
Max Gust Speed 15 mph    
Visibility 10 miles    
Events      
T = Trace of Precipitation, MM = Missing Value Source: NWS Daily Summary

Daily Weather History Graph

Daily Weather History Graph

Search for Another Location

Airport or City:

Trip Planner

Search our weather history database for the weather conditions in past years. The results will help you decide how hot, cold, wet, or windy it might be!

Date:

Astronomy

Dec. 05, 2012 Rise Set
Actual Time 7:14 AM MST 4:50 PM MST
Civil Twilight 6:44 AM MST 5:19 PM MST
Nautical Twilight 6:11 AM MST 5:52 PM MST
Astronomical Twilight 5:39 AM MST 6:25 PM MST
Moon 11:39 PM MST (12/5) 11:42 AM MST (12/5)
Length of Visible Light 10h 35m
Length of Day
9h 36m
Waning Gibbous, 59% of the Moon is Illuminated
Dec 5
Waning Gibbous
Dec 6
Last Quarter
Dec 13
New
Dec 19
First Quarter
Dec 28
Full

Hourly Weather History & Observations

Time (MST) Temp. Windchill Dew Point Humidity Pressure Visibility Wind Dir Wind Speed Gust Speed Precip Events Conditions
12:53 AM 28.9 °F 25.2 °F 16.0 °F 58% 30.34 in 10.0 mi South 3.5 mph - N/A   Clear
1:53 AM 28.0 °F 20.0 °F 15.1 °F 58% 30.34 in 10.0 mi SE 8.1 mph - N/A   Clear
2:53 AM 28.0 °F 18.6 °F 16.0 °F 61% 30.32 in 10.0 mi SSE 10.4 mph - N/A   Clear
3:53 AM 28.0 °F 20.8 °F 16.0 °F 61% 30.30 in 10.0 mi SE 6.9 mph - N/A   Clear
4:53 AM 28.9 °F 23.9 °F 16.0 °F 58% 30.29 in 10.0 mi South 4.6 mph - N/A   Clear
5:53 AM 28.0 °F - 16.0 °F 61% 30.31 in 10.0 mi Calm Calm - N/A   Clear
7:53 AM 28.9 °F 21.1 °F 18.0 °F 64% 30.30 in 10.0 mi South 8.1 mph - N/A   Clear
8:53 AM 37.0 °F 32.4 °F 21.0 °F 52% 30.26 in 10.0 mi South 5.8 mph - N/A   Clear
9:53 AM 43.0 °F 41.3 °F 18.0 °F 37% 30.22 in 10.0 mi WNW 3.5 mph - N/A   Clear
10:53 AM 46.9 °F - 19.9 °F 34% 30.17 in 10.0 mi NNW 5.8 mph - N/A   Scattered Clouds
11:53 AM 46.9 °F - 19.0 °F 33% 30.13 in 10.0 mi Calm Calm - N/A   Scattered Clouds
1:53 PM 52.0 °F - 19.9 °F 28% 30.08 in 10.0 mi Calm Calm - N/A   Clear
2:53 PM 52.0 °F - 21.0 °F 30% 30.06 in 10.0 mi East 3.5 mph - N/A   Partly Cloudy
3:53 PM 50.0 °F - 21.0 °F 32% 30.07 in 10.0 mi NNW 9.2 mph - N/A   Partly Cloudy
4:53 PM 46.0 °F 43.9 °F 21.0 °F 37% 30.07 in 10.0 mi NW 4.6 mph - N/A   Mostly Cloudy
5:53 PM 44.1 °F 41.5 °F 19.9 °F 38% 30.09 in 10.0 mi North 4.6 mph - N/A   Overcast
6:53 PM 42.1 °F - 19.9 °F 41% 30.11 in 10.0 mi Calm Calm - N/A   Mostly Cloudy
7:53 PM 42.1 °F 38.4 °F 21.0 °F 43% 30.10 in 10.0 mi South 5.8 mph - N/A   Overcast
8:53 PM 42.1 °F 38.4 °F 21.9 °F 45% 30.07 in 10.0 mi SSE 5.8 mph - N/A   Overcast
9:53 PM 43.0 °F 40.3 °F 21.9 °F 43% 30.04 in 10.0 mi SSE 4.6 mph - N/A   Overcast
10:53 PM 42.1 °F 39.2 °F 21.9 °F 45% 30.03 in 10.0 mi East 4.6 mph - N/A   Overcast
11:53 PM 41.0 °F - 23.0 °F 49% 30.04 in 10.0 mi Calm Calm - N/A   Overcast